Regional Weather Roundup
Issued by NWS

Home | Current Version | Previous Version | Text Only | Print | Product List | Glossary On
Versions: 1 2 3 4 5 6 7 8 9 10 11 12 13 14 15 16 17 18 19 20 21 22 23 24 25 26 27 28
000
ASUS42 KTBW 211417
RWRFL
FLORIDA REGIONAL WEATHER ROUNDUP
NATIONAL WEATHER SERVICE TAMPA BAY RUSKIN FL
1000 AM EDT SAT APR 21 2018

NOTE: "FAIR" INDICATES FEW OR NO CLOUDS BELOW 12,000 FEET WITH NO
SIGNIFICANT WEATHER AND/OR OBSTRUCTIONS TO VISIBILITY.

FLZ001>010-012>015-112-114-115-211500-
PANHANDLE FLORIDA

CITY           SKY/WX    TMP DP  RH WIND       PRES   REMARKS
PENSACOLA      CLOUDY    64  54  69 E8        30.18F
PENSACOLA NAS  FAIR      68  57  68 E15       30.18R
MILTON NAS     FAIR      65  56  72 E10       30.19
CRESTVIEW      CLOUDY    63  51  65 E9        30.22F
DUKE FIELD     CLOUDY    63  51  66 E9        30.20S
VALPARAISO     MOSUNNY   65  53  65 NE8       30.18S
MARY ESTHER    MOSUNNY   66  55  68 E15G22    30.17
TRI COUNTY     PTSUNNY   65  51  60 VRB7      30.23S
PANAMA CITY    CLOUDY    64  54  69 NE7       30.19S
TYNDALL AFB    FAIR      66  57  72 E9        30.19S
APALACHICOLA   CLOUDY    67  57  70 E10       30.18R

STATION/POSITION SKY/WX   TEMP    WIND        PRES    WAVE   SWELL
                          AIR SEA DIR/SP/G            HT/PER HT/PER
                          (F)     (DEG/KT/KT) (MB)    (FT/S) (FT/S)
30.1N   87.6W              67      80/ 17/ 23 1021.0
29.2N   88.2W                 70  100/ 14/ 16 1019.8F   3/ 4
28.8N   86.0W              69 73   80/ 14/ 16 1020.3R   5/ 7   3/ 7
PANAMA CITY BEAC           62 68   50/  9/ 13 1022.9S
TOWER C                    65      70/ 22/ 24 1021.7R

$$
FLZ011-016>038-118-127-128-134-139-239-211500-
NORTH FLORIDA

CITY           SKY/WX    TMP DP  RH WIND       PRES   REMARKS
MARIANNA       PTSUNNY   66  48  52 E10       30.22S
TALLAHASSEE    CLOUDY    67  53  61 E9        30.22R
PERRY          PTSUNNY   69  56  63 E12G18    30.22S
LIVE OAK       PTSUNNY   66  55  68 NE12G18   30.25S
CROSS CITY     CLOUDY    68  62  80 NE9       30.20S
LAKE CITY      CLOUDY    64  59  82 NE7G16    30.23S
GAINESVILLE    CLOUDY    73  63  70 NE9       30.23R
WILLISTON        N/A     73  66  78 VRB7      30.19S
PALATKA        PTSUNNY   72  68  88 E9        30.21S
MAYPORT NAS    CLOUDY    66  64  93 NE16      30.23R FOG
JACKSONVILLE   LGT RAIN  65  61  87 NE14      30.24R FOG
JAX NAS        HVY RAIN  66  64  93 N9        30.24R FOG
JAX CECIL      CLOUDY    64  64 100 NE9       30.23S FOG
FERNANDINA BEA CLOUDY    67  59  76 NE18G26   30.24R
ST AUGUSTINE   CLOUDY    71  66  84 E12       30.23R HAZE
PALM COAST     PTSUNNY   73  64  73 E15       30.20R

STATION/POSITION SKY/WX   TEMP    WIND        PRES    WAVE   SWELL
                          AIR SEA DIR/SP/G            HT/PER HT/PER
                          (F)     (DEG/KT/KT) (MB)    (FT/S) (FT/S)
SHELL POINT      NOT AVBL
KEATON BEACH               67      60/ 11/ 13 1022.5S
CEDAR KEY                  69      70/ 14/ 15 1022.1R
FERNANDINA                 68 66   30/  9/ 14 1025.1R
30.7N   81.3W                 66                N/A     6/ 5
MAYPORT                    66 66   50/ 15/ 20 1023.7R
31.4N   80.9W              64 64   60/ 19/ 23 1025.1S   6/ 6   2/13
ST AUGUSTINE               70 66   90/ 13/ 14 1023.4R

$$
FLZ040-043>046-052-053-057-058-063-144-211500-
INTERIOR CENTRAL FLORIDA

CITY           SKY/WX    TMP DP  RH WIND       PRES   REMARKS
OCALA          PTSUNNY   73  66  78 NE8       30.19S
LEESBURG       FAIR      75  68  78 E15       30.18S
SANFORD        PTSUNNY   77  66  68 E18G25    30.18R
ORLANDO EXEC   CLOUDY    76  68  76 E12       30.17R
ORLANDO INTL   PTSUNNY   74  67  78 E14       30.17R
KISSIMMEE      PTSUNNY   75  68  78 E14       30.17S
WINTER HAVEN   FAIR      77  69  76 E10       30.16S
LAKELAND       MOSUNNY   75  68  78 E10       30.16R
BARTOW         SUNNY     75  70  83 E10       30.15S
SEBRING        FAIR      79  67  67 E12       30.15S
OKEECHOBEE     FAIR      77  68  73 E9        30.13S

$$
FLZ041-047-054-059-064-141-147-211500-
EAST CENTRAL FLORIDA

CITY           SKY/WX    TMP DP  RH WIND       PRES   REMARKS
ORMOND BEACH   PTSUNNY   73  66  78 E12G21    30.20R
DAYTONA BEACH  PTSUNNY   75  67  76 E13G22    30.19R
DELAND         CLOUDY    75  66  73 E13G20    30.18R
NEW SMYRNA BEA MOSUNNY   75  66  73 E15       30.20R
JFK SPACE CTR  DRIZZLE   74  69  86 E10G22    30.17R
TITUSVILLE     PTSUNNY   77  70  78 E14       30.18R
CAPE CANAVERAL DRIZZLE   72  68  88 E17       30.16R
PATRICK AFB    FAIR      78  68  72 E14       30.15S
MELBOURNE      PTSUNNY   78  67  68 E16       30.15S
VERO BEACH     FAIR      77  68  73 E14       30.15S
FT PIERCE      CLOUDY    77  70  79 E14       30.14S
STUART         PTSUNNY   79  70  73 E12G18    30.15S

STATION/POSITION SKY/WX   TEMP    WIND        PRES    WAVE   SWELL
                          AIR SEA DIR/SP/G            HT/PER HT/PER
                          (F)     (DEG/KT/KT) (MB)    (FT/S) (FT/S)
28.5N   80.2W              72 73   60/ 21/ 25 1021.8
28.9N   78.5W              72 75   70/ 21/ 27 1023.1R   8/ 7   2/11
TRIDENT PIER               72 76   50/ 13/ 18 1022.8S
28.4N   80.5W                 76                N/A     4/ 5   2/11
27.5N   80.2W                 74                N/A     5/ 9   2/11

$$
FLZ050-056-061-142-242-148-248-149-249-151-251-155-255-
160-260-211500-
WEST CENTRAL FLORIDA

CITY           SKY/WX    TMP DP  RH WIND       PRES   REMARKS
CRYSTAL RIVER  CLOUDY    73  64  73 E12G17    30.17S
INVERNESS      PTSUNNY   73  70  88 E7        30.18S HAZE
BROOKSVILLE    FAIR      75  66  73 E13G18    30.16S
CLEARWATER AIR FAIR      73  66  78 E8        30.14S
ST PETE CLEARW FAIR      73  67  81 E8        30.14R
TAMPA INTL     PTSUNNY   76  67  73 VRB6      30.15R
TAMPA EXEC     FAIR      75  68  78 E7        30.16R
PLANT CITY     FAIR      79  68  69 E7        30.17R
MACDILL AFB    FAIR      76  68  74 E10       30.14R
PETER O KNIGHT FAIR      75  68  78 E9        30.15R
ST PETERSBURG  PTSUNNY   74  70  87 E12       30.13R
SARASOTA       FAIR      76  68  76 E13       30.11S
VENICE         FAIR      75  70  83 SE8       30.13S HAZE

STATION/POSITION SKY/WX   TEMP    WIND        PRES    WAVE   SWELL
                          AIR SEA DIR/SP/G            HT/PER HT/PER
                          (F)     (DEG/KT/KT) (MB)    (FT/S) (FT/S)
27.3N   84.2W                 74                N/A     4/ 6
CLEARWATER BEACH           74 74   90/  9/ 15 1020.4R
MIDDLE TAMPA BAY           72     130/ 12/ 14 1020.1F
VENICE                     73 75  130/  7/  8 1020.1F

$$
FLZ066-069-070-075>078-162-262-165-265-211500-
SOUTHWEST FLORIDA AND KEYS

CITY           SKY/WX    TMP DP  RH WIND       PRES   REMARKS
PUNTA GORDA    FAIR      79  67  66 E13       30.14S
FT MYERS       FAIR      76  70  82 SE7       30.12S
SOUTHWEST INTL FAIR      74  70  87 E7        30.13R
NAPLES         FAIR      76  70  82 E5        30.12S
MARCO ISLAND   FAIR      76  68  76 E5        30.13S
IMMOKALEE      FAIR      77  70  78 E7        30.13F
MARATHON       FAIR      82  67  60 NE9       30.10R
KEY WEST NAS   PTSUNNY   80  70  71 E12       30.10S
KEY WEST INTL  FAIR      79  71  76 E9        30.10S

STATION/POSITION SKY/WX   TEMP    WIND        PRES    WAVE   SWELL
                          AIR SEA DIR/SP/G            HT/PER HT/PER
                          (F)     (DEG/KT/KT) (MB)    (FT/S) (FT/S)
NAPLES                     74 79              1019.7F
26.0N   85.6W              76 79  100/ 10/ 12 1019.0
DRY TORTUGAS               75      90/  7/  8 1019.3S
SAND KEY                   76                 1019.3R
SOMBRERO KEY               77      50/ 12/ 14 1018.5R
LONG KEY                   78 79   60/  7/  9 1019.2R
MOLASSES REEF              78 79   90/  7/  8 1019.8

$$
FLZ067-068-071>074-168-172>174-211500-
SOUTHEAST FLORIDA

CITY           SKY/WX    TMP DP  RH WIND       PRES   REMARKS
W PALM BEACH   PTSUNNY   78  69  73 E15       30.13S
BOCA RATON       N/A     81  70  69 E6        30.13
FT LAUDER-EXEC FAIR      81  68  64 E8        30.12R
FT LAUDERDALE  PTSUNNY   80  71  74 E7        30.11R
POMPANO BEACH  FAIR      80  70  71 NE7       30.12R
PEMBROKE PINES FAIR      83  66  56 VRB5      30.13R
OPA LOCKA      FAIR      80  66  62 CALM      30.12S
MIAMI          PTSUNNY   80  67  64 E9        30.12R
WEST KENDALL   PTSUNNY   81  64  56 E8        30.11S
HOMESTEAD      FAIR      80  67  64 E8        30.11R

STATION/POSITION SKY/WX   TEMP    WIND        PRES    WAVE   SWELL
                          AIR SEA DIR/SP/G            HT/PER HT/PER
                          (F)     (DEG/KT/KT) (MB)    (FT/S) (FT/S)
PORT EVERGLADES            78      50/  6/  8 1019.7S
VIRGINIA KEY               78 79   70/  6/  8 1019.1R
LAKE WORTH                 77 78  100/



USA.gov is the U.S. government's official web portal to all federal, state and local government web resources and services.